Location: Middelsbur
(53.6609°N, 7.5020°E)
Time: 12:49:39
(UTC+00:00)

Cosmos 1624 Rocket - Pass Details

Date: 06 July 2020
Orbit: 758 x 783 km, 74.0° (Epoch: 07 August)

Event Time Altitude Azimuth Distance (km) Brightness Sun altitude
Rises 21:28:43 0° 334° (NNW) 3,254 9.7 -9.0°
Reaches altitude 10° 21:31:10 10° 339° (NNW) 2,319 8.1 -9.2°
Maximum altitude 21:36:21 57° 58° (ENE) 902 4.4 -9.6°
Enters shadow 21:41:10 12° 136° (SE) 2,180 5.7 -9.9°
